Location: Newark
(52.5667°N, 8.8000°W)
Time: 11:41:22
(UTC+00:00)

N. Korean satellite - Pass Details

Date: 02 February 2020
Orbit: 456 x 505 km, 97.2° (Epoch: 19 February)

Event Time Altitude Azimuth Distance (km) Brightness Sun altitude
Rises 06:57:11 0° 9° (N) 2,563 10.2 -12.1°
Reaches altitude 10° 06:59:17 10° 5° (N) 1,686 9.2 -11.8°
Maximum altitude 07:02:49 53° 288° (WNW) 614 6.7 -11.3°
Drops below altitude 10° 07:06:23 10° 211° (SSW) 1,697 9.1 -10.8°
Sets 07:08:30 0° 207° (SSW) 2,582 10.1 -10.5°
